Regional Weather Roundup
Issued by NWS Huntsville, AL

Home | Current Version | Previous Version | Text Only | Print | Product List | Glossary On
Versions: 1 2 3 4 5 6 7 8 9 10 11 12 13 14 15 16 17 18 19 20 21 22 23 24 25 26 27 28 29 30 31 32 33 34 35 36 37 38 39 40 41 42 43 44 45 46 47 48 49 50
000
ASUS44 KHUN 280310
RWRHUN

WEATHER ROUNDUP FOR THE TENNESSEE VALLEY
NATIONAL WEATHER SERVICE HUNTSVILLE AL
1000 PM CDT WED AUG 27 2014

ALZ001>004-280400-
NORTHWEST ALABAMA

CITY           SKY/WX    TMP DP  RH WIND       PRES   REMARKS
COURTLAND HCN    N/A     75 N/A N/A CALM        N/A
RUSSELLVILLE     N/A     72 N/A N/A MISG        N/A
SHOALS AIRPORT MOCLDY    77  71  82 CALM      30.06R
SHOALS TVA RES   N/A     77 N/A N/A MISG        N/A
$$

ALZ005>007-016-280400-
NORTH CENTRAL ALABAMA

CITY           SKY/WX    TMP DP  RH WIND       PRES   REMARKS
CULLMAN AG STN   N/A     72 N/A N/A CALM        N/A
DECATUR AP     PTCLDY    74  68  81 CALM      30.05S
HUNTSVILLE AP  PTCLDY    75  66  73 CALM      30.05R
HUN NWS/UAH      N/A     79  64  59 NW1         N/A
MERIDIANVILLE  CLEAR     72  66  83 CALM      30.06S
VINEMONT AP    FAIR      67  64  88 CALM      30.09S
$$

ALZ008>010-280400-
NORTHEAST ALABAMA

CITY           SKY/WX    TMP DP  RH WIND       PRES   REMARKS
ALBERTVILLE    CLEAR     73  70  88 CALM      30.07S
FORT PAYNE     CLEAR     68  64  88 CALM      30.06S
SCOTTSBORO AP    N/A     72  72 100 CALM      30.06S
SCOTTSBORO HCN   N/A     72 N/A N/A MISG        N/A
VALLEY HEAD      N/A     68 N/A N/A MISG        N/A
$$

TNZ076-096-097-280400-
SOUTHEASTERN MIDDLE TENNESSEE

CITY           SKY/WX    TMP DP  RH WIND       PRES   REMARKS
FAYETTEVILLE   CLEAR     73  66  78 CALM      30.07S
TULLAHOMA      CLEAR     72  64  78 CALM      30.09S
WINCHESTER     CLEAR     70  68  94 CALM      30.08S
$$

...SURROUNDING SITES...

CITY           SKY/WX    TMP DP  RH WIND       PRES   REMARKS
ATLANTA        PTCLDY    78  61  55 W3        30.06R
ANNISTON       PTCLDY    71  66  84 CALM      30.06R
BIRMINGHAM     PTCLDY    75  61  61 CALM      30.07R
CHATTANOOGA    CLEAR     76  65  68 CALM      30.06S
CORINTH          N/A     73  70  88 CALM      30.05R
DALTON         CLEAR     68  68 100 CALM      30.05S
GADSDEN        CLEAR     72  63  73 CALM      30.05R
GOLDEN TRNGL   PTCLDY    75  64  69 CALM      30.04R
HALEYVILLE     FAIR      71  65  81 CALM      30.10R
JACKSON TN     CLEAR     75  72  90 CALM      30.05S
LEWISBURG      FAIR      71  67  87 CALM      30.06R
MEMPHIS        CLEAR     83  66  56 E6        30.04R
MURFREESBORO   FAIR      78  69  73 CALM      30.05S
NASHVILLE      PTCLDY    81  71  71 NE3       30.06R
ROME           CLEAR     71  65  81 N3        30.05R
SAVANNAH       CLEAR     72  72 100 CALM      30.06R
TUPELO         CLEAR     74  67  78 NE6       30.04R
TUSCALOOSA     CLEAR     76  64  66 N3        30.02R
$$

...GULF COAST WEATHER...

CITY           SKY/WX    TMP DP  RH WIND       PRES   REMARKS
GULFPORT       PTCLDY    82  73  74 CALM      30.00R
PASCAGOULA     PTCLDY    76  73  91 CALM      30.00S
MOBILE         PTCLDY    76  76 100 W3        30.02R
GULF SHORES    PTCLDY    76  72  89 CALM      30.00R
PENSACOLA      MOCLDY    79  71  76 W5        30.00R
DESTIN         CLEAR     82  71  69 CALM      30.00R
PANAMA CITY    CLEAR     78  71  80 S5        30.01R
APPALACHICOLA  CLEAR     74  69  85 CALM      30.00R
$$




USA.gov is the U.S. government's official web portal to all federal, state and local government web resources and services.